project_name,platform_name,Date_(yyyymmdd),Time_(hh24miss),beacon_ID,latitude_DD,longitude_DD,altitude_m,altitude_result_value_type,speed_m_s,speed_result_value_type,direction_degrees,direction_result_value_type,fix,sat
BaySys,Amundsen,2008-04-17,19:07:23,300034012525590,70.7110,-122.1157,3.0341,Actual,0.0000,Calculated,147.5900,Calculated,1,7
BaySys,Amundsen,2008-04-17,21:06:59,300034012525590,70.6987,-122.1091,-5.9199,Actual,0.1942,Calculated,179.4800,Calculated,1,5
BaySys,Amundsen,2008-04-17,23:06:38,300034012525590,70.6887,-122.1000,-6.6829,Actual,0.1623,Calculated,152.9600,Calculated,1,5
BaySys,Amundsen,2008-04-18,01:06:59,300034012525590,70.6793,-122.0803,6.0366,Actual,0.1768,Calculated,139.6900,Calculated,1,7
BaySys,Amundsen,2008-04-18,03:06:50,300034012525590,70.6707,-122.0597,-3.5850,Actual,0.1703,Calculated,97.6600,Calculated,1,7
BaySys,Amundsen,2008-04-18,05:06:40,300034012525590,70.6633,-122.0411,25.0969,Actual,0.1494,Calculated,152.6900,Calculated,1,8
BaySys,Amundsen,2008-04-18,07:06:30,300034012525590,70.6541,-122.0212,-4.1745,Actual,0.1757,Calculated,146.6700,Calculated,1,6
BaySys,Amundsen,2008-04-18,09:06:45,300034012525590,70.6448,-121.9968,-16.9397,Actual,0.1906,Calculated,134.4600,Calculated,1,7
BaySys,Amundsen,2008-04-18,11:06:32,300034012525590,70.6364,-121.9714,-0.0740,Actual,0.1847,Calculated,123.8400,Calculated,1,6
BaySys,Amundsen,2008-04-18,13:06:37,300034012525590,70.6295,-121.9439,11.4500,Actual,0.1772,Calculated,137.0200,Calculated,1,10
BaySys,Amundsen,2008-04-18,15:07:05,300034012525590,70.6238,-121.9250,-6.2426,Actual,0.1308,Calculated,319.9800,Calculated,1,9
BaySys,Amundsen,2008-04-18,17:06:54,300034012525590,70.6185,-121.9097,9.9472,Actual,0.1139,Calculated,197.2100,Calculated,1,6
BaySys,Amundsen,2008-04-18,19:06:37,300034012525590,70.6123,-121.8940,-0.9694,Actual,0.1258,Calculated,153.9800,Calculated,1,11
BaySys,Amundsen,2008-04-18,21:06:42,300034012525590,70.6069,-121.8786,-7.5856,Actual,0.1152,Calculated,79.1800,Calculated,1,9
BaySys,Amundsen,2008-04-18,23:06:39,300034012525590,70.6027,-121.8622,1.6379,Actual,0.1067,Calculated,140.7800,Calculated,1,8
BaySys,Amundsen,2008-04-19,01:07:05,300034012525590,70.6000,-121.8482,3.1759,Actual,0.0831,Calculated,123.4100,Calculated,1,7
BaySys,Amundsen,2008-04-19,03:06:49,300034012525590,70.5997,-121.8446,22.8337,Actual,0.0192,Calculated,226.5800,Calculated,1,6
BaySys,Amundsen,2008-04-19,05:07:05,300034012525590,70.5996,-121.8444,-4.5538,Actual,0.0019,Calculated,256.7100,Calculated,1,6
BaySys,Amundsen,2008-04-19,07:06:52,300034012525590,70.5996,-121.8444,-7.5797,Actual,0.0000,Calculated,32.5700,Calculated,1,6
BaySys,Amundsen,2008-04-19,09:07:29,300034012525590,70.5996,-121.8444,0.5360,Actual,0.0000,Calculated,280.3800,Calculated,1,9
BaySys,Amundsen,2008-04-19,11:07:01,300034012525590,70.5996,-121.8444,-1.7423,Actual,0.0000,Calculated,121.9500,Calculated,1,7
BaySys,Amundsen,2008-04-19,13:07:29,300034012525590,70.5996,-121.8444,2.0165,Actual,0.0000,Calculated,306.7600,Calculated,1,9
BaySys,Amundsen,2008-04-19,15:07:35,300034012525590,70.5996,-121.8445,-14.4701,Actual,0.0005,Calculated,94.9400,Calculated,1,10
BaySys,Amundsen,2008-04-19,17:07:18,300034012525590,70.5996,-121.8445,6.6057,Actual,0.0000,Calculated,106.6200,Calculated,1,6
BaySys,Amundsen,2008-04-19,19:07:35,300034012525590,70.5996,-121.8445,0.9998,Actual,0.0000,Calculated,102.4700,Calculated,1,8
BaySys,Amundsen,2008-04-19,21:07:35,300034012525590,70.6009,-121.8476,10.6538,Actual,0.0257,Calculated,58.5100,Calculated,1,9
BaySys,Amundsen,2008-04-19,23:07:24,300034012525590,70.6042,-121.8549,-6.2585,Actual,0.0636,Calculated,311.7100,Calculated,1,5
BaySys,Amundsen,2008-04-20,01:07:11,300034012525590,70.6096,-121.8675,10.6541,Actual,0.1061,Calculated,33.4700,Calculated,1,10
BaySys,Amundsen,2008-04-20,03:07:10,300034012525590,70.6170,-121.8815,0.3162,Actual,0.1355,Calculated,285.7900,Calculated,1,10
BaySys,Amundsen,2008-04-20,05:07:35,300034012525590,70.6259,-121.8943,-0.4344,Actual,0.1523,Calculated,0.0700,Calculated,1,10
BaySys,Amundsen,2008-04-20,07:07:17,300034012525590,70.6346,-121.9042,0.3767,Actual,0.1445,Calculated,342.9300,Calculated,1,8
BaySys,Amundsen,2008-04-20,09:07:35,300034012525590,70.6428,-121.9094,-3.9057,Actual,0.1295,Calculated,213.6000,Calculated,1,10
BaySys,Amundsen,2008-04-20,11:07:32,300034012525590,70.6502,-121.9101,-0.3672,Actual,0.1148,Calculated,324.4400,Calculated,1,10
BaySys,Amundsen,2008-04-20,13:07:18,300034012525590,70.6592,-121.9078,18.3207,Actual,0.1402,Calculated,344.6900,Calculated,1,10
BaySys,Amundsen,2008-04-20,15:07:53,300034012525590,70.6701,-121.9044,-10.1884,Actual,0.1690,Calculated,14.8500,Calculated,1,11
BaySys,Amundsen,2008-04-20,17:07:23,300034012525590,70.6826,-121.8999,-10.3367,Actual,0.1959,Calculated,345.5400,Calculated,1,8
BaySys,Amundsen,2008-04-20,19:08:05,300034012525590,70.6963,-121.8952,-3.1810,Actual,0.2124,Calculated,21.2200,Calculated,1,9
BaySys,Amundsen,2008-04-20,21:07:34,300034012525590,70.7091,-121.8834,-16.3145,Actual,0.2083,Calculated,33.0100,Calculated,1,10
BaySys,Amundsen,2008-04-20,23:07:36,300034012525590,70.7218,-121.8606,-8.8756,Actual,0.2288,Calculated,32.3100,Calculated,1,12
BaySys,Amundsen,2008-04-21,01:07:33,300034012525590,70.7314,-121.8372,-2.2073,Actual,0.1911,Calculated,113.4200,Calculated,1,10
BaySys,Amundsen,2008-04-21,03:07:38,300034012525590,70.7338,-121.8243,-6.7787,Actual,0.0757,Calculated,75.5400,Calculated,1,11
BaySys,Amundsen,2008-04-21,05:07:59,300034012525590,70.7279,-121.8115,-6.3448,Actual,0.1121,Calculated,175.3000,Calculated,1,9
BaySys,Amundsen,2008-04-21,07:07:44,300034012525590,70.7194,-121.7993,-5.6927,Actual,0.1461,Calculated,192.5700,Calculated,1,8
BaySys,Amundsen,2008-04-21,09:08:05,300034012525590,70.7136,-121.7853,-0.1506,Actual,0.1146,Calculated,101.6900,Calculated,1,9
BaySys,Amundsen,2008-04-21,11:08:10,300034012525590,70.7105,-121.7602,-2.4652,Actual,0.1372,Calculated,109.3600,Calculated,1,11
BaySys,Amundsen,2008-04-21,13:07:51,300034012525590,70.7070,-121.7314,3.4969,Actual,0.1576,Calculated,113.3100,Calculated,1,10
BaySys,Amundsen,2008-04-21,15:07:52,300034012525590,70.7019,-121.7142,-13.3033,Actual,0.1184,Calculated,174.7500,Calculated,1,11
BaySys,Amundsen,2008-04-21,17:07:59,300034012525590,70.6949,-121.7042,1.7124,Actual,0.1199,Calculated,195.6300,Calculated,1,10
BaySys,Amundsen,2008-04-21,19:08:29,300034012525590,70.6876,-121.6974,2.3307,Actual,0.1179,Calculated,157.9500,Calculated,1,9
BaySys,Amundsen,2008-04-21,21:08:02,300034012525590,70.6794,-121.6976,-15.6639,Actual,0.1275,Calculated,174.4900,Calculated,1,10
BaySys,Amundsen,2008-04-21,23:07:59,300034012525590,70.6703,-121.7017,-6.4394,Actual,0.1426,Calculated,177.9400,Calculated,1,9
BaySys,Amundsen,2008-04-22,01:08:35,300034012525590,70.6610,-121.7073,-1.3259,Actual,0.1462,Calculated,194.9000,Calculated,1,10
BaySys,Amundsen,2008-04-22,03:08:20,300034012525590,70.6536,-121.7142,-11.3383,Actual,0.1203,Calculated,248.8300,Calculated,1,13
BaySys,Amundsen,2008-04-22,05:08:08,300034012525590,70.6455,-121.7263,-4.0368,Actual,0.1403,Calculated,207.3100,Calculated,1,12
BaySys,Amundsen,2008-04-22,07:08:35,300034012525590,70.6376,-121.7434,-0.9608,Actual,0.1501,Calculated,227.7200,Calculated,1,6
BaySys,Amundsen,2008-04-22,09:08:18,300034012525590,70.6303,-121.7614,0.1494,Actual,0.1465,Calculated,189.2500,Calculated,1,9
BaySys,Amundsen,2008-04-22,11:08:30,300034012525590,70.6246,-121.7725,-4.5669,Actual,0.1050,Calculated,250.3700,Calculated,1,9
BaySys,Amundsen,2008-04-22,13:08:18,300034012525590,70.6196,-121.7824,-1.5516,Actual,0.0929,Calculated,200.9300,Calculated,1,12
BaySys,Amundsen,2008-04-22,15:08:21,300034012525590,70.6136,-121.7912,-4.7953,Actual,0.1034,Calculated,203.5500,Calculated,1,14
BaySys,Amundsen,2008-04-22,17:08:24,300034012525590,70.6079,-121.8070,0.1761,Actual,0.1200,Calculated,224.3600,Calculated,1,11
BaySys,Amundsen,2008-04-22,19:08:36,300034012525590,70.6031,-121.8264,-2.8743,Actual,0.1243,Calculated,269.1100,Calculated,1,10
BaySys,Amundsen,2008-04-22,21:08:36,300034012525590,70.5987,-121.8470,3.0285,Actual,0.1261,Calculated,55.5000,Calculated,1,9
BaySys,Amundsen,2008-04-22,23:08:35,300034012525590,70.5947,-121.8683,-4.3456,Actual,0.1260,Calculated,239.6100,Calculated,1,11
BaySys,Amundsen,2008-04-23,01:08:29,300034012525590,70.5902,-121.8877,-0.2319,Actual,0.1220,Calculated,255.3400,Calculated,1,10
BaySys,Amundsen,2008-04-23,03:08:38,300034012525590,70.5848,-121.9043,5.7837,Actual,0.1195,Calculated,244.9900,Calculated,1,10
BaySys,Amundsen,2008-04-23,05:08:59,300034012525590,70.5797,-121.9202,-5.7372,Actual,0.1135,Calculated,229.7800,Calculated,1,8
BaySys,Amundsen,2008-04-23,07:08:41,300034012525590,70.5747,-121.9351,1.8819,Actual,0.1094,Calculated,226.4800,Calculated,1,11
BaySys,Amundsen,2008-04-23,09:09:05,300034012525590,70.5690,-121.9502,0.1633,Actual,0.1174,Calculated,255.8100,Calculated,1,7
BaySys,Amundsen,2008-04-23,11:09:06,300034012525590,70.5645,-121.9626,-1.9024,Actual,0.0946,Calculated,293.8500,Calculated,1,9
BaySys,Amundsen,2008-04-23,13:08:52,300034012525590,70.5604,-121.9679,-5.3137,Actual,0.0693,Calculated,159.8900,Calculated,1,12
BaySys,Amundsen,2008-04-23,15:09:23,300034012525590,70.5554,-121.9750,-5.5387,Actual,0.0853,Calculated,216.4000,Calculated,1,12
BaySys,Amundsen,2008-04-23,17:09:07,300034012525590,70.5515,-121.9866,0.0990,Actual,0.0853,Calculated,207.1000,Calculated,1,6
BaySys,Amundsen,2008-04-23,19:08:56,300034012525590,70.5483,-122.0007,0.6501,Actual,0.0882,Calculated,180.8300,Calculated,1,8
BaySys,Amundsen,2008-04-23,21:09:10,300034012525590,70.5461,-122.0132,-10.7134,Actual,0.0729,Calculated,190.1400,Calculated,1,11
BaySys,Amundsen,2008-04-23,23:09:04,300034012525590,70.5437,-122.0213,-10.8393,Actual,0.0560,Calculated,282.8500,Calculated,1,6
BaySys,Amundsen,2008-04-24,01:09:24,300034012525590,70.5417,-122.0262,-0.4401,Actual,0.0399,Calculated,188.9900,Calculated,1,10
BaySys,Amundsen,2008-04-24,03:09:07,300034012525590,70.5411,-122.0275,4.4807,Actual,0.0115,Calculated,38.7000,Calculated,1,13
BaySys,Amundsen,2008-04-24,05:09:24,300034012525590,70.5410,-122.0281,-2.7554,Actual,0.0035,Calculated,343.7700,Calculated,1,9
BaySys,Amundsen,2008-04-24,07:09:07,300034012525590,70.5408,-122.0292,24.2425,Actual,0.0065,Calculated,177.9800,Calculated,1,10
BaySys,Amundsen,2008-04-24,09:09:27,300034012525590,70.5402,-122.0312,-2.6744,Actual,0.0139,Calculated,236.4600,Calculated,1,10
BaySys,Amundsen,2008-04-24,11:11:05,300034012525590,70.5399,-122.0325,1.4265,Actual,0.0081,Calculated,66.6200,Calculated,1,7
BaySys,Amundsen,2008-04-24,13:11:02,300034012525590,70.5398,-122.0324,25.3711,Actual,0.0016,Calculated,262.5600,Calculated,1,11
BaySys,Amundsen,2008-04-24,15:11:35,300034012525590,70.5392,-122.0349,-1.0737,Actual,0.0158,Calculated,267.9300,Calculated,1,14
BaySys,Amundsen,2008-04-24,17:11:18,300034012525590,70.5384,-122.0424,-3.7071,Actual,0.0408,Calculated,280.6300,Calculated,1,6
BaySys,Amundsen,2008-04-24,19:11:14,300034012525590,70.5392,-122.0583,-12.1024,Actual,0.0831,Calculated,323.7200,Calculated,1,6
BaySys,Amundsen,2008-04-24,21:11:35,300034012525590,70.5409,-122.0784,-11.0199,Actual,0.1068,Calculated,60.4800,Calculated,1,9
BaySys,Amundsen,2008-04-24,23:11:58,300034012525590,70.5425,-122.0984,-8.9269,Actual,0.1059,Calculated,302.7500,Calculated,1,11
BaySys,Amundsen,2008-04-25,01:11:07,300034012525590,70.5439,-122.1147,-0.5276,Actual,0.0876,Calculated,279.8400,Calculated,1,10
BaySys,Amundsen,2008-04-25,03:11:35,300034012525590,70.5450,-122.1269,-10.6240,Actual,0.0650,Calculated,103.9400,Calculated,1,13
BaySys,Amundsen,2008-04-25,05:11:35,300034012525590,70.5456,-122.1355,-1.0067,Actual,0.0454,Calculated,210.6800,Calculated,1,6
BaySys,Amundsen,2008-04-25,07:11:21,300034012525590,70.5459,-122.1444,64.5143,Actual,0.0463,Calculated,350.0400,Calculated,1,8
BaySys,Amundsen,2008-04-25,09:12:30,300034012525590,70.5455,-122.1551,-9.7924,Actual,0.0551,Calculated,262.9500,Calculated,1,12
BaySys,Amundsen,2008-04-25,11:12:47,300034012525590,70.5448,-122.1660,8.3991,Actual,0.0572,Calculated,284.4600,Calculated,1,8
BaySys,Amundsen,2008-04-25,13:13:12,300034012525590,70.5437,-122.1748,-6.2608,Actual,0.0484,Calculated,251.1000,Calculated,1,13
BaySys,Amundsen,2008-04-25,15:12:52,300034012525590,70.5428,-122.1828,-3.7157,Actual,0.0437,Calculated,250.3400,Calculated,1,10
BaySys,Amundsen,2008-04-25,17:13:29,300034012525590,70.5414,-122.1902,4.8635,Actual,0.0437,Calculated,227.9300,Calculated,1,11
BaySys,Amundsen,2008-04-25,19:12:57,300034012525590,70.5400,-122.1973,-1.9677,Actual,0.0428,Calculated,190.6300,Calculated,1,9
BaySys,Amundsen,2008-04-25,21:13:07,300034012525590,70.5392,-122.1998,-9.6319,Actual,0.0179,Calculated,13.9800,Calculated,1,10
BaySys,Amundsen,2008-04-25,23:13:03,300034012525590,70.5388,-122.1991,-2.6803,Actual,0.0072,Calculated,308.2200,Calculated,1,8
BaySys,Amundsen,2008-04-26,01:12:57,300034012525590,70.5384,-122.1975,-4.2546,Actual,0.0103,Calculated,46.9200,Calculated,1,11
BaySys,Amundsen,2008-04-26,03:12:58,300034012525590,70.5382,-122.1960,-9.8671,Actual,0.0083,Calculated,183.8100,Calculated,1,10
BaySys,Amundsen,2008-04-26,05:13:18,300034012525590,70.5383,-122.1959,-7.3948,Actual,0.0016,Calculated,217.6700,Calculated,1,7
BaySys,Amundsen,2008-04-26,07:13:09,300034012525590,70.5383,-122.1960,49.9087,Actual,0.0005,Calculated,161.4400,Calculated,1,8
BaySys,Amundsen,2008-04-26,09:13:35,300034012525590,70.5382,-122.1962,0.7163,Actual,0.0019,Calculated,264.8000,Calculated,1,9
BaySys,Amundsen,2008-04-26,11:13:53,300034012525590,70.5383,-122.1962,6.5510,Actual,0.0015,Calculated,172.6200,Calculated,1,8
BaySys,Amundsen,2008-04-26,13:13:16,300034012525590,70.5382,-122.1958,-3.2284,Actual,0.0026,Calculated,118.6800,Calculated,1,7
BaySys,Amundsen,2008-04-26,15:13:30,300034012525590,70.5381,-122.1955,-1.1900,Actual,0.0022,Calculated,343.0400,Calculated,1,8
BaySys,Amundsen,2008-04-26,17:13:35,300034012525590,70.5381,-122.1954,-4.0223,Actual,0.0005,Calculated,83.2000,Calculated,1,6
BaySys,Amundsen,2008-04-26,19:13:21,300034012525590,70.5382,-122.1962,-5.3665,Actual,0.0044,Calculated,300.7500,Calculated,1,6
BaySys,Amundsen,2008-04-26,21:13:20,300034012525590,70.5385,-122.1976,-13.2519,Actual,0.0086,Calculated,354.7700,Calculated,1,9
BaySys,Amundsen,2008-04-26,23:13:21,300034012525590,70.5387,-122.1984,-5.0452,Actual,0.0052,Calculated,249.2400,Calculated,1,8
BaySys,Amundsen,2008-04-27,01:13:25,300034012525590,70.5395,-122.2008,-5.8841,Actual,0.0175,Calculated,181.1700,Calculated,1,11
BaySys,Amundsen,2008-04-27,03:13:28,300034012525590,70.5398,-122.2017,8.7511,Actual,0.0066,Calculated,144.9000,Calculated,1,11
BaySys,Amundsen,2008-04-27,05:13:53,300034012525590,70.5400,-122.2020,-7.7681,Actual,0.0035,Calculated,239.1300,Calculated,1,9
BaySys,Amundsen,2008-04-27,07:13:29,300034012525590,70.5405,-122.2045,25.8609,Actual,0.0151,Calculated,351.2500,Calculated,1,9
BaySys,Amundsen,2008-04-27,09:14:00,300034012525590,70.5412,-122.2089,5.8384,Actual,0.0251,Calculated,287.7000,Calculated,1,9
BaySys,Amundsen,2008-04-27,11:13:36,300034012525590,70.5420,-122.2150,-7.5105,Actual,0.0340,Calculated,225.2600,Calculated,1,7
BaySys,Amundsen,2008-04-27,13:13:37,300034012525590,70.5436,-122.2248,-4.2824,Actual,0.0564,Calculated,297.4600,Calculated,1,12
BaySys,Amundsen,2008-04-27,15:13:36,300034012525590,70.5465,-122.2435,-4.3365,Actual,0.1065,Calculated,261.7100,Calculated,1,12
BaySys,Amundsen,2008-04-27,17:14:05,300034012525590,70.5513,-122.2750,2.3034,Actual,0.1781,Calculated,181.5600,Calculated,1,7
BaySys,Amundsen,2008-04-27,19:14:27,300034012525590,70.5577,-122.3197,-6.0979,Actual,0.2504,Calculated,292.6800,Calculated,1,8
BaySys,Amundsen,2008-04-27,21:13:45,300034012525590,70.5658,-122.3695,-14.4683,Actual,0.2877,Calculated,311.9100,Calculated,1,9
BaySys,Amundsen,2008-04-27,23:14:29,300034012525590,70.5756,-122.4222,-4.3105,Actual,0.3095,Calculated,299.9700,Calculated,1,11
BaySys,Amundsen,2008-04-28,01:13:55,300034012525590,70.5854,-122.4700,-6.2027,Actual,0.2909,Calculated,306.8600,Calculated,1,9
BaySys,Amundsen,2008-04-28,03:14:29,300034012525590,70.5935,-122.5137,-7.6820,Actual,0.2566,Calculated,297.0600,Calculated,1,13
BaySys,Amundsen,2008-04-28,05:14:24,300034012525590,70.5996,-122.5615,-10.0566,Actual,0.2640,Calculated,298.7700,Calculated,1,9
BaySys,Amundsen,2008-04-28,07:13:57,300034012525590,70.6070,-122.6152,-1.2229,Actual,0.3005,Calculated,297.5500,Calculated,1,10
BaySys,Amundsen,2008-04-28,09:14:29,300034012525590,70.6162,-122.6711,0.2401,Actual,0.3197,Calculated,294.8200,Calculated,1,10
BaySys,Amundsen,2008-04-28,11:14:30,300034012525590,70.6244,-122.7250,6.3730,Actual,0.3050,Calculated,291.2700,Calculated,1,8
BaySys,Amundsen,2008-04-28,13:14:07,300034012525590,70.6300,-122.7784,-10.7774,Actual,0.2890,Calculated,293.0200,Calculated,1,9
BaySys,Amundsen,2008-04-28,15:14:09,300034012525590,70.6343,-122.8248,163.6749,Actual,0.2477,Calculated,272.3600,Calculated,1,9
BaySys,Amundsen,2008-04-28,17:14:35,300034012525590,70.6380,-122.8730,8.3701,Actual,0.2535,Calculated,285.2100,Calculated,1,10
BaySys,Amundsen,2008-04-28,19:14:53,300034012525590,70.6436,-122.9225,-6.4058,Actual,0.2682,Calculated,271.5600,Calculated,1,9
BaySys,Amundsen,2008-04-28,21:14:21,300034012525590,70.6505,-122.9732,-13.8291,Actual,0.2829,Calculated,309.0000,Calculated,1,10
BaySys,Amundsen,2008-04-28,23:14:18,300034012525590,70.6581,-123.0194,-1.0591,Actual,0.2651,Calculated,284.2600,Calculated,1,10
BaySys,Amundsen,2008-04-29,01:14:53,300034012525590,70.6638,-123.0581,-1.5362,Actual,0.2164,Calculated,289.0300,Calculated,1,10
BaySys,Amundsen,2008-04-29,03:14:24,300034012525590,70.6669,-123.0941,-4.4564,Actual,0.1917,Calculated,251.2000,Calculated,1,9
BaySys,Amundsen,2008-04-29,05:14:59,300034012525590,70.6693,-123.1326,-7.7405,Actual,0.2001,Calculated,75.5700,Calculated,1,10
BaySys,Amundsen,2008-04-29,07:14:54,300034012525590,70.6735,-123.1767,-3.0760,Actual,0.2357,Calculated,290.5100,Calculated,1,10
BaySys,Amundsen,2008-04-29,09:14:37,300034012525590,70.6801,-123.2207,3.3035,Actual,0.2484,Calculated,283.5900,Calculated,1,8
BaySys,Amundsen,2008-04-29,11:14:40,300034012525590,70.6877,-123.2624,-4.3976,Actual,0.2441,Calculated,300.7800,Calculated,1,6
BaySys,Amundsen,2008-04-29,13:14:32,300034012525590,70.6937,-123.2992,-2.3470,Actual,0.2106,Calculated,277.3600,Calculated,1,9
BaySys,Amundsen,2008-04-29,15:14:35,300034012525590,70.6967,-123.3308,-2.1237,Actual,0.1685,Calculated,283.8100,Calculated,1,10
BaySys,Amundsen,2008-04-29,17:15:05,300034012525590,70.6985,-123.3601,-4.9052,Actual,0.1521,Calculated,281.2300,Calculated,1,8
BaySys,Amundsen,2008-04-29,19:14:50,300034012525590,70.7017,-123.3905,-13.1367,Actual,0.1639,Calculated,295.0500,Calculated,1,8
BaySys,Amundsen,2008-04-29,21:14:45,300034012525590,70.7076,-123.4220,-9.4720,Actual,0.1856,Calculated,278.0200,Calculated,1,9
BaySys,Amundsen,2008-04-29,23:15:05,300034012525590,70.7153,-123.4548,-4.3980,Actual,0.2055,Calculated,297.5300,Calculated,1,10
BaySys,Amundsen,2008-04-30,01:15:06,300034012525590,70.7216,-123.4827,38.5984,Actual,0.1730,Calculated,284.9800,Calculated,1,9
BaySys,Amundsen,2008-04-30,03:14:55,300034012525590,70.7249,-123.5092,-6.2975,Actual,0.1452,Calculated,274.7700,Calculated,1,11
BaySys,Amundsen,2008-04-30,05:15:23,300034012525590,70.7273,-123.5357,-3.5358,Actual,0.1401,Calculated,214.0600,Calculated,1,11
BaySys,Amundsen,2008-04-30,07:15:18,300034012525590,70.7307,-123.5648,-14.5171,Actual,0.1581,Calculated,287.1300,Calculated,1,8
BaySys,Amundsen,2008-04-30,09:14:58,300034012525590,70.7364,-123.5880,12.7753,Actual,0.1484,Calculated,327.7800,Calculated,1,7
BaySys,Amundsen,2008-04-30,11:15:29,300034012525590,70.7432,-123.6109,-3.0366,Actual,0.1569,Calculated,316.1000,Calculated,1,8
BaySys,Amundsen,2008-04-30,13:15:29,300034012525590,70.7505,-123.6294,1.6816,Actual,0.1475,Calculated,305.0100,Calculated,1,11
BaySys,Amundsen,2008-04-30,15:15:05,300034012525590,70.7542,-123.6481,-9.8809,Actual,0.1118,Calculated,299.5900,Calculated,1,10
BaySys,Amundsen,2008-04-30,17:15:35,300034012525590,70.7560,-123.6690,-3.9820,Actual,0.1100,Calculated,284.7800,Calculated,1,9
BaySys,Amundsen,2008-04-30,19:15:35,300034012525590,70.7593,-123.6841,-3.4765,Actual,0.0926,Calculated,330.9300,Calculated,1,9
BaySys,Amundsen,2008-04-30,21:15:35,300034012525590,70.7637,-123.7034,-22.3385,Actual,0.1199,Calculated,306.3900,Calculated,1,9
BaySys,Amundsen,2008-04-30,23:15:35,300034012525590,70.7690,-123.7260,-3.9223,Actual,0.1417,Calculated,306.3700,Calculated,1,9
BaySys,Amundsen,2008-05-01,01:15:26,300034012525590,70.7746,-123.7482,3.0358,Actual,0.1430,Calculated,263.2800,Calculated,1,11
BaySys,Amundsen,2008-05-01,03:15:24,300034012525590,70.7791,-123.7717,8.5393,Actual,0.1388,Calculated,278.8900,Calculated,1,13
BaySys,Amundsen,2008-05-01,05:15:53,300034012525590,70.7818,-123.7955,1.7868,Actual,0.1280,Calculated,277.5300,Calculated,1,11
BaySys,Amundsen,2008-05-01,07:15:26,300034012525590,70.7824,-123.8254,-3.7298,Actual,0.1535,Calculated,256.2900,Calculated,1,9
BaySys,Amundsen,2008-05-01,09:15:22,300034012525590,70.7835,-123.8539,6.4559,Actual,0.1465,Calculated,288.2700,Calculated,1,9
BaySys,Amundsen,2008-05-01,11:15:28,300034012525590,70.7854,-123.8889,32.2660,Actual,0.1809,Calculated,251.4100,Calculated,1,10
BaySys,Amundsen,2008-05-01,13:15:25,300034012525590,70.7879,-123.9267,-3.9459,Actual,0.1968,Calculated,273.5700,Calculated,1,11
BaySys,Amundsen,2008-05-01,15:15:28,300034012525590,70.7906,-123.9643,-5.9872,Actual,0.1963,Calculated,301.1000,Calculated,1,11
BaySys,Amundsen,2008-05-01,17:15:26,300034012525590,70.7934,-124.0056,0.9021,Actual,0.2152,Calculated,275.6600,Calculated,1,11
BaySys,Amundsen,2008-05-01,19:15:29,300034012525590,70.7972,-124.0475,-10.1339,Actual,0.2216,Calculated,309.2900,Calculated,1,8
BaySys,Amundsen,2008-05-01,21:15:36,300034012525590,70.8027,-124.0845,-14.9013,Actual,0.2068,Calculated,280.5600,Calculated,1,9
BaySys,Amundsen,2008-05-01,23:16:05,300034012525590,70.8082,-124.1276,-3.5389,Actual,0.2347,Calculated,289.8600,Calculated,1,8
BaySys,Amundsen,2008-05-02,01:15:40,300034012525590,70.8132,-124.1744,-12.4155,Actual,0.2517,Calculated,302.2200,Calculated,1,10
BaySys,Amundsen,2008-05-02,03:16:05,300034012525590,70.8160,-124.2184,-7.5149,Actual,0.2276,Calculated,198.2100,Calculated,1,11
BaySys,Amundsen,2008-05-02,05:16:00,300034012525590,70.8158,-124.2652,-1.1036,Actual,0.2387,Calculated,316.9900,Calculated,1,8
BaySys,Amundsen,2008-05-02,07:15:40,300034012525590,70.8126,-124.3059,-8.4659,Actual,0.2139,Calculated,217.4700,Calculated,1,9
BaySys,Amundsen,2008-05-02,09:16:23,300034012525590,70.8099,-124.3430,1.5584,Actual,0.1925,Calculated,249.4200,Calculated,1,10
BaySys,Amundsen,2008-05-02,11:16:06,300034012525590,70.8080,-124.3837,2.2668,Actual,0.2100,Calculated,263.9700,Calculated,1,7
BaySys,Amundsen,2008-05-02,13:15:48,300034012525590,70.8063,-124.4242,-7.6130,Actual,0.2087,Calculated,275.7400,Calculated,1,11
BaySys,Amundsen,2008-05-02,15:15:48,300034012525590,70.8069,-124.4714,-6.6228,Actual,0.2408,Calculated,272.9600,Calculated,1,8
BaySys,Amundsen,2008-05-02,17:15:54,300034012525590,70.8084,-124.5222,-0.9674,Actual,0.2598,Calculated,283.4500,Calculated,1,10
BaySys,Amundsen,2008-05-02,19:15:59,300034012525590,70.8099,-124.5734,-11.0677,Actual,0.2618,Calculated,283.3400,Calculated,1,7
BaySys,Amundsen,2008-05-02,21:16:29,300034012525590,70.8112,-124.6246,-9.3707,Actual,0.2607,Calculated,262.0200,Calculated,1,10
BaySys,Amundsen,2008-05-02,23:16:21,300034012525590,70.8123,-124.6796,1.1485,Actual,0.2812,Calculated,287.8800,Calculated,1,9
BaySys,Amundsen,2008-05-03,01:16:03,300034012525590,70.8143,-124.7380,-9.3096,Actual,0.3000,Calculated,274.7800,Calculated,1,9
BaySys,Amundsen,2008-05-03,03:16:24,300034012525590,70.8184,-124.8055,-6.3906,Actual,0.3488,Calculated,258.3800,Calculated,1,14
BaySys,Amundsen,2008-05-03,05:16:10,300034012525590,70.8247,-124.8723,-0.7453,Actual,0.3547,Calculated,284.7100,Calculated,1,12